Weather History for New Bern, NC

Change the Weather History Date:

Sunday, September 9, 2012

  Actual Average Record
Temperature  
Mean Temperature 71 °F 76 °F  
Max Temperature 79 °F 85 °F 95 °F (1978)
Min Temperature 63 °F 67 °F 52 °F (1966)
Degree Days  
Heating Degree Days 0 0  
Month to date heating degree days 0 0  
Since 1 July heating degree days 0 0  
Cooling Degree Days 6 11  
Month to date cooling degree days 135 104  
Year to date cooling degree days 1809 1633  
Growing Degree Days 22 (Base 50)    
Moisture  
Dew Point 67 °F    
Average Humidity 76    
Maximum Humidity 93    
Minimum Humidity 58    
Precipitation  
Precipitation 0.01 in 0.19 in 2.33 in (1967)
Month to date precipitation 3.00 1.83  
Year to date precipitation 41.45 38.63  
Snow  
Snow 0.00 in - - ()
Month to date snowfall 0.0  
Since 1 July snowfall 0.0  
Snow Depth 0.00 in    
Sea Level Pressure  
Sea Level Pressure 29.85 in    
Wind  
Wind Speed 7 mph (North)    
Max Wind Speed 14 mph    
Max Gust Speed 18 mph    
Visibility 10 miles    
Events Rain    
T = Trace of Precipitation, MM = Missing Value Source: NWS Daily Summary

Daily Weather History Graph

Daily Weather History Graph

Search for Another Location

Airport:

Trip Planner

Search our weather history database for the weather conditions in past years. The results will help you decide how hot, cold, wet, or windy it might be!

Date:

Astronomy

Sep. 09, 2012 Rise Set
Actual Time 6:47 AM EDT 7:23 PM EDT
Civil Twilight 6:21 AM EDT 7:48 PM EDT
Nautical Twilight 5:51 AM EDT 8:18 PM EDT
Astronomical Twilight 5:20 AM EDT 8:49 PM EDT
Moon 12:24 AM EDT (9/9) 2:56 PM EDT (9/9)
Length of Visible Light 13h 27m
Length of Day
12h 36m
Last Quarter, 39% of the Moon is Illuminated
Sep 9
Last Quarter
Sep 15
New
Sep 22
First Quarter
Sep 29
Full
Oct 8
Last Quarter

Hourly Weather History & Observations

Time (EDT) Temp. Dew Point Humidity Pressure Visibility Wind Dir Wind Speed Gust Speed Precip Events Conditions
12:23 AM 73.4 °F 69.8 °F 88% 29.83 in 10.0 mi NW 3.5 mph - 0.00 in   Mostly Cloudy
12:45 AM 73.4 °F 69.8 °F 88% 29.81 in 10.0 mi WNW 3.5 mph - 0.00 in   Scattered Clouds
12:54 AM 73.0 °F 70.0 °F 90% 29.81 in 10.0 mi WNW 3.5 mph - 0.00 in   Partly Cloudy
1:17 AM 73.4 °F 69.8 °F 88% 29.81 in 10.0 mi West 4.6 mph - N/A   Partly Cloudy
1:50 AM 71.6 °F 69.8 °F 94% 29.80 in 10.0 mi NW 5.8 mph - N/A   Mostly Cloudy
1:54 AM 72.0 °F 70.0 °F 93% 29.80 in 10.0 mi NW 4.6 mph - N/A   Mostly Cloudy
2:54 AM 72.0 °F 70.0 °F 93% 29.80 in 10.0 mi NNW 5.8 mph - N/A   Overcast
3:32 AM 71.6 °F 69.8 °F 94% 29.79 in 10.0 mi North 4.6 mph - N/A   Mostly Cloudy
3:54 AM 72.0 °F 70.0 °F 93% 29.80 in 10.0 mi NNW 5.8 mph - N/A   Overcast
4:42 AM 71.6 °F 69.8 °F 94% 29.81 in 10.0 mi NNW 6.9 mph - N/A   Overcast
4:54 AM 71.1 °F 69.1 °F 93% 29.81 in 10.0 mi North 9.2 mph - N/A   Overcast
5:54 AM 71.1 °F 69.1 °F 93% 29.82 in 10.0 mi NNE 8.1 mph - N/A   Overcast
6:54 AM 71.1 °F 68.0 °F 90% 29.84 in 10.0 mi NNW 6.9 mph - 0.01 in Rain Light Rain
7:54 AM 69.1 °F 66.0 °F 90% 29.86 in 10.0 mi NNE 9.2 mph 18.4 mph 0.00 in   Overcast
8:03 AM 69.8 °F 66.2 °F 88% 29.86 in 10.0 mi NNE 11.5 mph - N/A   Overcast
8:28 AM 69.8 °F 66.2 °F 88% 29.86 in 10.0 mi NNE 8.1 mph - N/A   Overcast
8:54 AM 69.1 °F 66.0 °F 90% 29.86 in 10.0 mi NNE 8.1 mph - N/A   Overcast
9:54 AM 70.0 °F 66.9 °F 90% 29.87 in 10.0 mi NNE 9.2 mph - N/A   Overcast
10:54 AM 71.1 °F 66.9 °F 87% 29.88 in 10.0 mi North 8.1 mph - N/A   Overcast
11:54 AM 73.4 °F 68.0 °F 83% 29.88 in 10.0 mi NNE 6.9 mph - N/A   Overcast
12:54 PM 73.0 °F 68.0 °F 84% 29.88 in 10.0 mi North 5.8 mph - N/A   Overcast
1:39 PM 73.4 °F 66.2 °F 78% 29.87 in 10.0 mi NNW 8.1 mph - N/A   Overcast
1:54 PM 73.0 °F 66.9 °F 81% 29.87 in 10.0 mi North 10.4 mph - N/A   Overcast
2:25 PM 73.4 °F 66.2 °F 78% 29.86 in 10.0 mi North 6.9 mph - N/A   Overcast
2:54 PM 75.9 °F 68.0 °F 76% 29.86 in 10.0 mi North 9.2 mph - N/A   Overcast
3:25 PM 77.0 °F 66.2 °F 69% 29.85 in 10.0 mi NNW 10.4 mph - N/A   Mostly Cloudy
3:38 PM 78.8 °F 66.2 °F 65% 29.84 in 10.0 mi North 10.4 mph - N/A   Mostly Cloudy
3:54 PM 79.0 °F 64.9 °F 62% 29.84 in 10.0 mi NNW 10.4 mph 16.1 mph N/A   Scattered Clouds
4:54 PM 79.0 °F 64.9 °F 62% 29.84 in 10.0 mi NNE 8.1 mph - N/A   Partly Cloudy
5:54 PM 78.1 °F 63.0 °F 60% 29.85 in 10.0 mi North 8.1 mph 17.3 mph N/A   Partly Cloudy
6:54 PM 75.0 °F 62.1 °F 64% 29.88 in 10.0 mi North 8.1 mph - N/A   Clear
7:54 PM 72.0 °F 62.1 °F 71% 29.90 in 10.0 mi NNW 6.9 mph - N/A   Clear
8:54 PM 70.0 °F 61.0 °F 73% 29.93 in 10.0 mi North 5.8 mph - N/A   Clear
9:54 PM 68.0 °F 61.0 °F 78% 29.94 in 10.0 mi NNW 3.5 mph - N/A   Clear
10:54 PM 64.0 °F 62.1 °F 93% 29.96 in 10.0 mi Calm Calm - N/A   Clear
11:54 PM 64.0 °F 60.1 °F 87% 29.97 in 10.0 mi Calm Calm - N/A   Clear